This is the latest recevied weather packets stored in our database for station/object IZ1UQG-1. If no packets are shown the sender has not sent any weather packets the latest 10 day(s).
| Time | Temp. | Humidity | Pressure | Rain* | Wind** | Luminosity | Snow |
|---|---|---|---|---|---|---|---|
| 1778146731 | 22.22° C | 60% | 1012.5 hPa | 102.87 mm | - | - | - |
| 1778146431 | 21.67° C | 62% | 1012.5 hPa | 120.14 mm | - | - | - |
| 1778146131 | 21.67° C | 63% | 1012.6 hPa | 118.62 mm | - | - | - |
| 1778145831 | 21.11° C | 65% | 1012.5 hPa | 112.78 mm | - | - | - |
| 1778145531 | 20.56° C | 63% | 1012.7 hPa | 100.84 mm | - | - | - |
| 1778145231 | 20° C | 65% | 1012.5 hPa | 126.24 mm | - | - | - |
| 1778144931 | 20° C | 63% | 1012.7 hPa | 124.21 mm | - | - | - |
| 1778144631 | 20° C | 64% | 1012.8 hPa | 109.73 mm | - | - | - |
| 1778144331 | 19.44° C | 64% | 1012.9 hPa | 84.33 mm | - | - | - |
| 1778144031 | 20° C | 65% | 1012.9 hPa | 97.28 mm | - | - | - |
| 1778143731 | 19.44° C | 68% | 1013 hPa | 96.27 mm | - | - | - |
| 1778143431 | 19.44° C | 68% | 1012.9 hPa | 97.79 mm | - | - | - |
| 1778143131 | 18.89° C | 68% | 1012.9 hPa | 81.79 mm | - | - | - |
| 1778142831 | 18.89° C | 70% | 1012.9 hPa | 104.39 mm | - | - | - |
| 1778142531 | 18.89° C | 71% | 1012.9 hPa | 121.67 mm | - | - | - |
| 1778142231 | 18.33° C | 71% | 1012.9 hPa | 129.29 mm | - | - | - |
| 1778141931 | 18.33° C | 71% | 1013.2 hPa | 127.76 mm | - | - | - |
| 1778141631 | 18.33° C | 71% | 1013 hPa | 135.13 mm | - | - | - |
| 1778141331 | 17.78° C | 72% | 1013.1 hPa | 144.27 mm | - | - | - |
| 1778141031 | 17.78° C | 72% | 1013.2 hPa | 154.18 mm | - | - | - |
| 1778140731 | 17.22° C | 72% | 1013.2 hPa | 150.11 mm | - | - | - |
| 1778140431 | 17.22° C | 73% | 1013.2 hPa | 155.19 mm | - | - | - |
| 1778140132 | 16.67° C | 74% | 1013.4 hPa | 161.04 mm | - | - | - |
| 1778139831 | 16.67° C | 75% | 1013.4 hPa | 163.07 mm | - | - | - |
| 1778139531 | 16.67° C | 76% | 1013.6 hPa | 167.64 mm | - | - | - |
* Rain latest hour (hover to see other rain measurements)
** Current wind speed in m/s (hover to see current wind gust speed)